Sat, 31 Jul 2021 13:38:23 UTC

Information for RPM ethtool-6-1.fc9.ppc64.rpm

ID484573
Nameethtool
Version6
Release1.fc9
Epoch
Archppc64
SummaryEthernet settings tool for PCI ethernet cards
DescriptionThis utility allows querying and changing of ethernet card settings, such as speed, port, autonegotiation, and PCI locations.
Build Time2008-03-12 15:51:16 GMT
Size73,442
cafaee3fa7a6a6bd71057a5261da8bed
LicenseGPL+
Buildrootdist-f9-build-159309-26343
Provides
ethtool = 6-1.fc9
Obsoletes No Obsoletes
Conflicts No Conflicts
Requires
libc.so.6()(64bit)
libc.so.6(GLIBC_2.3)(64bit)
libc.so.6(GLIBC_2.3.4)(64bit)
libc.so.6(GLIBC_2.4)(64bit)
rpmlib(CompressedFileNames) <= 3.0.4-1
rpmlib(PayloadFilesHavePrefix) <= 4.0-1
rtld(GNU_HASH)
Recommends No Recommends
Suggests No Suggests
Supplements No Supplements
Enhances No Enhances
Files
1 through 10 of 10
Name ascending sort Size
/sbin/ethtool146,600
/usr/sbin/ethtool13
/usr/share/doc/ethtool-64,096
/usr/share/doc/ethtool-6/AUTHORS267
/usr/share/doc/ethtool-6/COPYING17,992
/usr/share/doc/ethtool-6/ChangeLog11,384
/usr/share/doc/ethtool-6/INSTALL9,273
/usr/share/doc/ethtool-6/NEWS3,938
/usr/share/doc/ethtool-6/README127
/usr/share/man/man8/ethtool.8.gz3,135
Component of
Page:
1 through 50 of 12707 >>>
Buildroot descending sort Created State
dist-f10-build-348059-64577 2009-02-13 00:08:07 expired
dist-f10-build-348026-64577 2009-02-12 23:13:36 expired
dist-f9-build-348002-64575 2009-02-12 22:16:13 expired
dist-f10-build-347990-64577 2009-02-12 21:23:25 expired
dist-f10-build-347970-64577 2009-02-12 20:46:49 expired
dist-f10-build-347946-64577 2009-02-12 20:24:59 expired
dist-f10-build-347932-64577 2009-02-12 20:17:18 expired
dist-f10-build-347927-64577 2009-02-12 20:02:23 expired
dist-f10-build-347899-64577 2009-02-12 18:27:11 expired
dist-f10-build-347852-64460 2009-02-12 16:29:26 expired
dist-f10-build-347844-64460 2009-02-12 16:26:26 expired
dist-f9-build-347808-64458 2009-02-12 15:58:17 expired
dist-f10-build-347806-64460 2009-02-12 15:58:15 expired
dist-f10-build-347738-64460 2009-02-12 14:59:03 expired
dist-f9-build-347715-64458 2009-02-12 14:38:52 expired
dist-f10-build-347712-64460 2009-02-12 14:38:44 expired
dist-f9-build-347685-64458 2009-02-12 14:13:55 expired
dist-f10-build-347668-64460 2009-02-12 14:00:16 expired
dist-f10-build-347616-64460 2009-02-12 12:45:44 expired
dist-f10-build-347597-64460 2009-02-12 12:31:28 expired
dist-f10-build-347576-64460 2009-02-12 11:53:39 expired
dist-f10-build-347547-64460 2009-02-12 10:43:39 expired
dist-f10-build-347432-64460 2009-02-12 05:16:56 expired
dist-f10-build-347416-64460 2009-02-12 04:39:20 expired
dist-f10-build-347407-64460 2009-02-12 03:42:30 expired
dist-f10-build-347397-64460 2009-02-12 03:32:16 expired
dist-f10-build-347375-64441 2009-02-12 00:36:30 expired
dist-f10-build-347355-64441 2009-02-11 22:57:20 expired
dist-f10-build-347346-64441 2009-02-11 22:48:44 expired
dist-f10-build-347345-64441 2009-02-11 22:40:42 expired
dist-f9-build-347334-64439 2009-02-11 22:04:07 expired
dist-f10-build-347331-64441 2009-02-11 22:03:35 expired
dist-f10-build-347265-64406 2009-02-11 19:39:37 expired
dist-f10-build-347258-64406 2009-02-11 19:21:19 expired
dist-f10-build-347218-64406 2009-02-11 18:01:29 expired
dist-f10-build-347190-64372 2009-02-11 17:29:45 expired
dist-f9-build-347139-64371 2009-02-11 16:34:52 expired
dist-f10-build-347129-64372 2009-02-11 16:21:00 expired
dist-f10-build-347113-64372 2009-02-11 15:54:06 expired
dist-f10-build-347084-64372 2009-02-11 15:18:16 expired
dist-f10-build-347065-64285 2009-02-11 14:55:45 expired
dist-f10-build-347043-64285 2009-02-11 13:55:19 expired
dist-f10-build-346928-64285 2009-02-11 10:31:33 expired
dist-f10-build-346843-64285 2009-02-11 07:32:54 expired
dist-f10-build-346833-64285 2009-02-11 07:11:21 expired
dist-f10-build-346814-64285 2009-02-11 06:42:18 expired
dist-f10-build-346810-64285 2009-02-11 06:35:26 expired
dist-f10-build-346806-64285 2009-02-11 06:11:51 expired
dist-f10-build-346771-64285 2009-02-11 04:07:05 expired
dist-f10-build-346752-64285 2009-02-11 03:09:47 expired